NAPEX1 KCLT-KVUJ

Flight info

Callsign NAPEX1
Flight time N/A
Altitude VFR/035
Route VFR FF+
Aircraft C152/L-VGD/C

Departure

Time 2026-05-04 21:34
Airport Charlotte Douglas International Airport (KCLT)

Arrival

Time N/A
Airport Stanly County Airport (KVUJ)
Time Latitude Longitude Altitude Speed Heading
2026-05-04 21:27 35.20870 -80.93271 713 ft 0 kts 328°
2026-05-04 21:28 35.20863 -80.93266 712 ft 1 kts 313°
2026-05-04 21:29 35.20865 -80.93259 713 ft 0 kts 180°
2026-05-04 21:29 35.20848 -80.93259 713 ft 7 kts 183°
2026-05-04 21:29 35.20791 -80.93289 710 ft 8 kts 254°
2026-05-04 21:30 35.20791 -80.93306 712 ft 5 kts 284°
2026-05-04 21:30 35.20857 -80.93345 714 ft 17 kts 355°
2026-05-04 21:30 35.21018 -80.93358 712 ft 29 kts 356°
2026-05-04 21:30 35.21248 -80.93377 716 ft 37 kts 359°
2026-05-04 21:31 35.21769 -80.93424 719 ft 36 kts 356°
2026-05-04 21:31 35.21934 -80.93417 723 ft 0 kts 22°
2026-05-04 21:32 35.21948 -80.93413 721 ft 7 kts 11°
2026-05-04 21:32 35.22042 -80.93391 721 ft 20 kts 12°
2026-05-04 21:32 35.22210 -80.93394 723 ft 28 kts 355°
2026-05-04 21:32 35.22390 -80.93417 724 ft 16 kts 331°
2026-05-04 21:33 35.22410 -80.93496 725 ft 6 kts 270°
2026-05-04 21:33 35.22408 -80.93550 725 ft 8 kts 268°
2026-05-04 21:33 35.22330 -80.93600 724 ft 29 kts 177°
2026-05-04 21:33 35.21993 -80.93551 770 ft 60 kts 177°
2026-05-04 21:34 35.21544 -80.93486 866 ft 70 kts 184°
2026-05-04 21:34 35.21075 -80.93462 1063 ft 61 kts 181°
2026-05-04 21:34 35.20684 -80.93464 1324 ft 56 kts 186°
2026-05-04 21:34 35.20250 -80.93498 1499 ft 65 kts 188°
2026-05-04 21:35 35.19780 -80.93534 1674 ft 67 kts 189°
2026-05-04 21:35 35.19308 -80.93639 1824 ft 69 kts 184°
2026-05-04 21:35 35.18806 -80.93586 1892 ft 76 kts 173°
2026-05-04 21:35 35.18410 -80.93087 1989 ft 93 kts 129°
2026-05-04 21:36 35.18105 -80.92361 2050 ft 99 kts 116°
2026-05-04 21:36 35.17987 -80.91509 2050 ft 107 kts 111°
2026-05-04 21:36 35.17846 -80.90653 2162 ft 100 kts 112°
2026-05-04 21:36 35.17702 -80.89835 2212 ft 99 kts 114°
2026-05-04 21:37 35.17550 -80.89007 2249 ft 100 kts 109°
2026-05-04 21:37 35.17480 -80.88164 2357 ft 100 kts 102°
2026-05-04 21:37 35.17394 -80.87309 2421 ft 101 kts 108°
2026-05-04 21:37 35.17238 -80.86477 2488 ft 99 kts 110°
2026-05-04 21:38 35.17087 -80.85642 2504 ft 100 kts 106°
2026-05-04 21:38 35.16843 -80.84891 2575 ft 95 kts 126°
2026-05-04 21:38 35.16465 -80.84254 2658 ft 89 kts 144°
2026-05-04 21:38 35.15886 -80.83979 2588 ft 94 kts 176°
2026-05-04 21:39 35.15235 -80.83906 2686 ft 90 kts 184°
2026-05-04 21:39 35.14625 -80.83870 2788 ft 88 kts 173°
2026-05-04 21:39 35.14135 -80.83362 2845 ft 96 kts 136°
2026-05-04 21:39 35.13703 -80.82775 2890 ft 95 kts 143°
2026-05-04 21:40 35.13207 -80.82241 2940 ft 89 kts 145°
2026-05-04 21:40 35.12773 -80.81746 3058 ft 84 kts 145°
2026-05-04 21:40 35.12351 -80.81266 3135 ft 84 kts 147°
2026-05-04 21:40 35.11952 -80.80730 3207 ft 89 kts 131°
2026-05-04 21:41 35.11670 -80.80036 3282 ft 91 kts 122°
2026-05-04 21:41 35.11446 -80.79329 3378 ft 88 kts 118°
2026-05-04 21:41 35.11238 -80.78624 3446 ft 90 kts 118°
2026-05-04 21:41 35.10989 -80.77913 3492 ft 89 kts 120°
2026-05-04 21:42 35.10750 -80.77196 3515 ft 97 kts 119°
2026-05-04 21:42 35.10496 -80.76426 3519 ft 100 kts 120°
2026-05-04 21:42 35.10232 -80.75642 3563 ft 98 kts 123°
2026-05-04 21:42 35.09918 -80.74902 3592 ft 99 kts 128°
2026-05-04 21:43 35.09532 -80.74194 3560 ft 99 kts 136°
2026-05-04 21:43 35.09013 -80.73704 3533 ft 94 kts 159°
2026-05-04 21:43 35.08418 -80.73357 3482 ft 96 kts 158°
2026-05-04 21:43 35.07905 -80.72844 3575 ft 95 kts 136°
2026-05-04 21:44 35.07566 -80.72132 3620 ft 96 kts 130°
2026-05-04 21:44 35.07225 -80.71446 3639 ft 93 kts 130°
2026-05-04 21:44 35.06860 -80.70733 3530 ft 101 kts 131°
2026-05-04 21:44 35.06460 -80.70047 3514 ft 96 kts 140°
2026-05-04 21:45 35.06030 -80.69418 3457 ft 102 kts 137°
2026-05-04 21:45 35.05571 -80.68761 3372 ft 102 kts 140°
2026-05-04 21:45 35.05106 -80.68123 3329 ft 104 kts 139°
2026-05-04 21:45 35.04680 -80.67392 3189 ft 110 kts 120°
2026-05-04 21:46 35.04366 -80.66499 2938 ft 117 kts 121°
2026-05-04 21:46 35.04060 -80.65608 2724 ft 112 kts 121°
2026-05-04 21:46 35.03697 -80.64794 2584 ft 106 kts 131°
2026-05-04 21:46 35.03249 -80.64096 2403 ft 103 kts 139°
2026-05-04 21:47 35.02767 -80.63424 2135 ft 107 kts 140°
2026-05-04 21:47 35.02250 -80.62763 1817 ft 108 kts 145°
2026-05-04 21:47 35.01697 -80.62183 1647 ft 101 kts 147°
2026-05-04 21:47 35.01148 -80.61651 1523 ft 97 kts 146°
2026-05-04 21:48 35.00840 -80.60981 1550 ft 101 kts 91°
2026-05-04 21:48 35.01328 -80.60428 1619 ft 105 kts
2026-05-04 21:48 35.01780 -80.59804 1496 ft 100 kts 83°
2026-05-04 21:48 35.01620 -80.59118 1524 ft 79 kts 149°
2026-05-04 21:49 35.01125 -80.58955 1492 ft 71 kts 195°
2026-05-04 21:49 35.00677 -80.59215 1496 ft 74 kts 216°
2026-05-04 21:49 35.00646 -80.59872 1534 ft 97 kts 283°
2026-05-04 21:49 35.00990 -80.60640 1481 ft 107 kts 297°
2026-05-04 21:50 35.01398 -80.61411 1431 ft 109 kts 295°
2026-05-04 21:50 35.01891 -80.62063 1500 ft 105 kts 322°
2026-05-04 21:50 35.02517 -80.62528 1584 ft 97 kts 328°
2026-05-04 21:50 35.03035 -80.63032 1375 ft 102 kts 281°
2026-05-04 21:51 35.02973 -80.63786 1473 ft 81 kts 251°
2026-05-04 21:51 35.02736 -80.64475 1366 ft 92 kts 240°
2026-05-04 21:51 35.02431 -80.65138 1438 ft 88 kts 232°
2026-05-04 21:51 35.02065 -80.65739 1427 ft 86 kts 221°
2026-05-04 21:52 35.01557 -80.65717 1426 ft 75 kts 150°
2026-05-04 21:52 35.01185 -80.65303 1351 ft 70 kts 139°
2026-05-04 21:52 35.00911 -80.64794 1220 ft 69 kts 139°
2026-05-04 21:52 35.00661 -80.64310 1146 ft 70 kts 129°
2026-05-04 21:53 35.00653 -80.63718 1055 ft 79 kts 65°
2026-05-04 21:53 35.01020 -80.63171 766 ft 84 kts 51°
2026-05-04 21:53 35.01375 -80.62700 684 ft 63 kts 50°
2026-05-04 21:53 35.01608 -80.62386 679 ft 38 kts 46°
2026-05-04 21:54 35.01782 -80.62159 676 ft 39 kts 47°
2026-05-04 21:54 35.01966 -80.61921 675 ft 36 kts 46°
2026-05-04 21:54 35.02180 -80.61639 682 ft 62 kts 48°
2026-05-04 21:54 35.02527 -80.61263 765 ft 69 kts 39°
2026-05-04 21:55 35.02919 -80.61008 922 ft 64 kts
2026-05-04 21:55 35.03353 -80.61201 938 ft 73 kts 305°
2026-05-04 21:55 35.03665 -80.61669 1105 ft 66 kts 296°
2026-05-04 21:55 35.03892 -80.62154 1197 ft 72 kts 307°
2026-05-04 21:56 35.04276 -80.62608 1211 ft 86 kts 315°
2026-05-04 21:56 35.04737 -80.63133 1238 ft 91 kts 305°
2026-05-04 21:56 35.05135 -80.63694 1418 ft 89 kts 301°
2026-05-04 21:56 35.05485 -80.64318 1487 ft 93 kts 296°
2026-05-04 21:57 35.05810 -80.65015 1518 ft 97 kts 294°
2026-05-04 21:57 35.06177 -80.65686 1687 ft 78 kts 298°
2026-05-04 21:57 35.06417 -80.66170 1941 ft 67 kts 284°
2026-05-04 21:57 35.06628 -80.66697 2074 ft 72 kts 285°
2026-05-04 21:58 35.06932 -80.67232 2181 ft 82 kts 296°
2026-05-04 21:58 35.07309 -80.67773 2226 ft 89 kts 301°
2026-05-04 21:58 35.07668 -80.68339 2391 ft 75 kts 295°
2026-05-04 21:58 35.07972 -80.68897 2461 ft 84 kts 291°
2026-05-04 21:59 35.08299 -80.69517 2550 ft 86 kts 295°
2026-05-04 21:59 35.08651 -80.70157 2616 ft 94 kts 295°
2026-05-04 21:59 35.09014 -80.70854 2581 ft 96 kts 294°
2026-05-04 21:59 35.09353 -80.71549 2599 ft 94 kts 291°
2026-05-04 22:00 35.09723 -80.72225 2597 ft 96 kts 297°
2026-05-04 22:00 35.10050 -80.72915 2607 ft 96 kts 294°
2026-05-04 22:00 35.10395 -80.73608 2590 ft 99 kts 294°
2026-05-04 22:00 35.10747 -80.74316 2630 ft 94 kts 292°
2026-05-04 22:01 35.11080 -80.74999 2655 ft 97 kts 293°
2026-05-04 22:01 35.11387 -80.75696 2801 ft 88 kts 295°
2026-05-04 22:01 35.11783 -80.76305 2842 ft 96 kts 299°
2026-05-04 22:01 35.12105 -80.76994 2937 ft 90 kts 296°
2026-05-04 22:02 35.12491 -80.77632 2926 ft 95 kts 298°
2026-05-04 22:02 35.12812 -80.78332 2926 ft 95 kts 288°
2026-05-04 22:02 35.13129 -80.79040 2963 ft 94 kts 294°
2026-05-04 22:02 35.13520 -80.79692 2965 ft 97 kts 302°
2026-05-04 22:03 35.13927 -80.80344 2977 ft 93 kts 296°
2026-05-04 22:03 35.14285 -80.80998 2974 ft 95 kts 297°
2026-05-04 22:03 35.14662 -80.81654 2981 ft 94 kts 297°
2026-05-04 22:03 35.15037 -80.82316 2984 ft 95 kts 295°
2026-05-04 22:04 35.15358 -80.83024 3048 ft 97 kts 292°
2026-05-04 22:04 35.15704 -80.83753 3042 ft 97 kts 296°
2026-05-04 22:04 35.16054 -80.84459 3014 ft 96 kts 293°
2026-05-04 22:04 35.16363 -80.85198 2957 ft 99 kts 288°
2026-05-04 22:05 35.16629 -80.85985 2852 ft 101 kts 287°
2026-05-04 22:05 35.16887 -80.86767 2749 ft 101 kts 285°
2026-05-04 22:05 35.17128 -80.87555 2691 ft 98 kts 285°
2026-05-04 22:05 35.17384 -80.88345 2632 ft 103 kts 286°
2026-05-04 22:06 35.17715 -80.89107 2600 ft 101 kts 301°
2026-05-04 22:06 35.18201 -80.89739 2527 ft 104 kts 313°
2026-05-04 22:06 35.18819 -80.90250 2469 ft 110 kts 326°
2026-05-04 22:06 35.19538 -80.90636 2315 ft 119 kts 333°
2026-05-04 22:07 35.20336 -80.90892 2251 ft 116 kts 343°
2026-05-04 22:07 35.21119 -80.91019 2281 ft 110 kts 349°
2026-05-04 22:07 35.21858 -80.91135 2307 ft 112 kts 347°
2026-05-04 22:07 35.22616 -80.91294 2350 ft 112 kts 345°
2026-05-04 22:08 35.23362 -80.91447 2422 ft 98 kts 346°
2026-05-04 22:08 35.23992 -80.91617 2430 ft 86 kts 322°
2026-05-04 22:08 35.24286 -80.92159 2337 ft 79 kts 274°
2026-05-04 22:08 35.24364 -80.92790 2306 ft 66 kts 262°
2026-05-04 22:09 35.24250 -80.93331 1941 ft 67 kts 228°
2026-05-04 22:09 35.23867 -80.93551 1696 ft 66 kts 195°
2026-05-04 22:09 35.23382 -80.93619 1362 ft 65 kts 194°
2026-05-04 22:09 35.22976 -80.93626 1105 ft 57 kts 189°
2026-05-04 22:10 35.22568 -80.93608 874 ft 61 kts 183°
2026-05-04 22:10 35.22166 -80.93577 743 ft 55 kts 184°
2026-05-04 22:10 35.21820 -80.93548 720 ft 48 kts 184°
2026-05-04 22:10 35.21559 -80.93524 717 ft 22 kts 185°
2026-05-04 22:11 35.21509 -80.93591 716 ft 8 kts 295°
2026-05-04 22:11 35.21539 -80.93641 717 ft 6 kts 303°
2026-05-04 22:11 35.21570 -80.93670 717 ft 5 kts 336°